Ballina Observation History
Time Wind Speed Temp Pressure Rel. Hum Rain
22/01:00pm S 24-38 kts 27.2°c 1010.9 hPa 64% 0.0mm
22/12:30pm S 26-41 kts 26.4°c 1011.0 hPa 76% 0.0mm
22/12:00pm S 22-34 kts 25.9°c 1011.1 hPa 83% 0.0mm
22/11:37am S 19-40 kts 24.1°c 1011.3 hPa 87% 0.0mm
22/11:30am S 19-29 kts 24.6°c 1011.1 hPa 90% 0.0mm
22/11:00am S 22-37 kts 27.0°c 1011.1 hPa 64% 0.0mm
22/10:30am S 24-35 kts 25.7°c 1011.1 hPa 66% 0.0mm
22/10:00am SSE 23-33 kts 24.1°c 1011.4 hPa 92% 0.0mm
22/09:30am SSE 21-32 kts 25.8°c 1011.0 hPa 80% 0.0mm
22/09:00am S 21-35 kts 24.8°c 1010.9 hPa 86% 14.0mm
22/08:30am S 23-35 kts 25.1°c 1010.7 hPa 85% 14.0mm
22/08:00am SSE 19-30 kts 24.8°c 1010.4 hPa 74% 14.0mm
22/07:30am SSE 23-36 kts 24.3°c 1010.2 hPa 82% 14.0mm
22/07:00am SSE 20-30 kts 24.5°c 1010.2 hPa 81% 14.0mm
22/06:31am SSE 19-30 kts 24.3°c 1010.0 hPa 77% 14.0mm
22/06:30am SSE 19-28 kts 24.2°c 1010.0 hPa 77% 14.0mm
22/06:00am SSE 20-30 kts 24.3°c 1009.8 hPa 76% 14.0mm
22/05:40am SSE 22-33 kts 24.1°c 1009.6 hPa 79% 14.0mm
22/05:30am SSE 23-31 kts 24.3°c 1009.5 hPa 79% 14.0mm
22/05:00am SSE 21-33 kts 23.9°c 1009.3 hPa 84% 14.0mm
22/04:53am SSE 21-33 kts 23.7°c 1009.4 hPa 85% 14.0mm
22/04:33am SSE 21-36 kts 22.6°c 1009.4 hPa 92% 13.2mm
22/04:31am SSE 20-36 kts 23.1°c 1009.4 hPa 90% 13.0mm
22/04:30am SSE 19-27 kts 23.6°c 1009.4 hPa 91% 13.0mm
22/04:08am SSE 20-30 kts 24.7°c 1009.5 hPa 81% 12.8mm
22/04:00am SSE 20-27 kts 24.7°c 1009.5 hPa 80% 12.8mm
22/03:30am SSE 21-32 kts 24.8°c 1009.3 hPa 91% 12.8mm
22/03:00am SSE 18-28 kts 23.8°c 1009.7 hPa 96% 12.8mm
22/02:30am SSE 19-29 kts 24.8°c 1009.9 hPa 84% 12.8mm
22/02:04am SSE 16-28 kts 24.6°c 1010.0 hPa 85% 12.8mm
22/02:00am SSE 18-27 kts 24.8°c 1010.1 hPa 85% 12.8mm
22/01:46am S 20-30 kts 24.8°c 1010.1 hPa 86% 12.8mm
22/01:30am SSE 18-26 kts 24.5°c 1010.2 hPa 90% 12.8mm
22/01:16am SSE 19-30 kts 24.7°c 1010.2 hPa 89% 12.8mm
22/01:00am SSE 20-29 kts 24.3°c 1010.4 hPa 93% 12.8mm
22/12:50am SSE 19-29 kts 24.1°c 1010.5 hPa 99% 12.8mm
22/12:47am SSE 19-28 kts 24.0°c 1010.5 hPa 100% 12.8mm
22/12:39am SSE 18-28 kts 23.8°c 1010.5 hPa n/a 12.4mm
22/12:35am SSE 18-27 kts 23.8°c 1010.5 hPa n/a 12.4mm
22/12:30am SSE 18-25 kts 23.6°c 1010.5 hPa n/a 12.4mm
22/12:20am SSE 15-28 kts 23.3°c 1010.7 hPa n/a 11.8mm
22/12:17am SSE 14-21 kts 23.4°c 1010.7 hPa n/a 11.8mm
22/12:00am SSE 17-23 kts 22.7°c 1011.0 hPa n/a 10.4mm
Time Wind Speed Temp Pressure Rel. Hum Rain
21/11:50pm SSE 18-28 kts 22.9°c 1010.9 hPa n/a 7.8mm
21/11:38pm SSE 20-26 kts 23.4°c 1010.7 hPa n/a 5.8mm
21/11:32pm SSE 17-24 kts 24.8°c 1010.6 hPa n/a 5.0mm
21/11:30pm SSE 17-24 kts 24.7°c 1010.6 hPa n/a 5.0mm
21/11:20pm SSE 15-27 kts 24.2°c 1010.6 hPa n/a 5.0mm
21/11:14pm SSE 13-18 kts 24.3°c 1010.6 hPa 100% 4.8mm
21/11:00pm SSE 15-21 kts 25.0°c 1010.8 hPa 100% 3.8mm
21/10:38pm SSE 15-20 kts 24.9°c 1010.7 hPa 100% 3.8mm
21/10:30pm SSE 15-20 kts 24.7°c 1010.8 hPa n/a 3.8mm
21/10:23pm SSE 14-20 kts 24.8°c 1010.7 hPa 96% 3.8mm
21/10:00pm SSE 12-18 kts 25.7°c 1010.7 hPa 89% 3.2mm
21/09:30pm SSE 13-19 kts 25.7°c 1010.6 hPa 85% 3.2mm
21/09:00pm SSE 12-19 kts 25.8°c 1010.4 hPa 86% 3.2mm
21/08:30pm SSE 14-19 kts 25.9°c 1010.2 hPa 85% 3.2mm
21/08:00pm SSE 13-17 kts 26.0°c 1010.1 hPa 84% 3.2mm
21/07:30pm SSE 14-20 kts 26.2°c 1009.7 hPa 85% 3.2mm
21/07:00pm SSE 14-19 kts 26.4°c 1009.3 hPa 82% 3.2mm
21/06:30pm SSE 14-19 kts 26.7°c 1009.0 hPa 95% 3.2mm
21/06:00pm S 14-21 kts 26.9°c 1008.9 hPa 92% 3.2mm
21/05:30pm SSE 14-19 kts 27.1°c 1008.7 hPa 91% 3.2mm
21/05:00pm S 15-21 kts 27.5°c 1008.5 hPa 78% 3.2mm
21/04:30pm S 16-23 kts 28.5°c 1008.3 hPa 76% 3.2mm
21/04:00pm S 15-23 kts 29.0°c 1008.4 hPa 77% 3.2mm
21/03:30pm SSE 16-21 kts 29.2°c 1008.7 hPa 76% 3.2mm
21/03:00pm SSE 16-22 kts 28.9°c 1009.1 hPa 76% 3.2mm
21/02:30pm SSE 12-19 kts 28.4°c 1009.3 hPa 81% 3.2mm
21/02:00pm S 15-19 kts 28.7°c 1009.6 hPa 80% 3.2mm
21/01:30pm SSE 14-19 kts 29.2°c 1009.7 hPa 76% 3.2mm
21/01:00pm SSE 17-21 kts 28.8°c 1009.9 hPa 79% 3.2mm
21/12:30pm SSE 14-21 kts 28.4°c 1010.1 hPa 80% 3.0mm
21/12:00pm SSE 14-20 kts 27.5°c 1010.3 hPa 85% 3.0mm
21/11:30am S 10-17 kts 27.4°c 1010.3 hPa 93% 2.8mm
21/11:00am SSE 9-12 kts 26.0°c 1010.3 hPa 95% 2.8mm
21/10:37am S 10-16 kts 24.4°c 1010.3 hPa n/a 2.8mm
21/10:30am S 9-12 kts 25.0°c 1010.2 hPa n/a 2.8mm
21/10:17am S 13-19 kts 24.0°c 1010.2 hPa n/a 2.6mm
21/10:00am SSE 10-15 kts 24.5°c 1009.9 hPa n/a 2.6mm
21/09:50am SSE 7-9 kts 24.8°c 1009.9 hPa n/a 2.4mm
21/09:30am SSE 12-18 kts 24.5°c 1009.9 hPa 100% 2.2mm
21/09:29am SSE 12-18 kts 24.6°c 1009.9 hPa 98% 1.8mm
21/09:20am SSE 13-19 kts 25.8°c 1009.7 hPa 91% 0.2mm
21/09:08am SE 12-17 kts 25.7°c 1009.6 hPa 97% 0.2mm
21/09:00am SE 11-15 kts 25.9°c 1009.5 hPa 93% 0.6mm
21/08:30am SSE 12-17 kts 26.5°c 1009.1 hPa 91% 0.6mm
21/08:00am SE 10-15 kts 25.8°c 1008.8 hPa 93% 0.6mm
21/07:30am WSW 7-9 kts 23.3°c 1008.6 hPa 100% 0.6mm
21/07:11am WSW 8-9 kts 22.8°c 1008.5 hPa 100% 0.6mm
21/07:00am SW 7-9 kts 22.6°c 1008.4 hPa 100% 0.6mm
21/06:30am SW 7-11 kts 22.5°c 1008.1 hPa 100% 0.6mm
21/06:13am SW 7-11 kts 22.7°c 1007.9 hPa 100% 0.6mm
21/06:11am SW 7-11 kts 22.7°c 1007.8 hPa 100% 0.6mm
21/06:00am SW 7-10 kts 22.8°c 1007.7 hPa 100% 0.6mm
21/05:52am SW 8-11 kts 22.9°c 1007.6 hPa 99% 0.4mm
21/05:50am SW 8-11 kts 22.9°c 1007.6 hPa 99% 0.2mm
21/05:30am SW 7-9 kts 23.1°c 1007.3 hPa 98% 0.2mm
21/05:00am SW 7-10 kts 23.5°c 1007.2 hPa 98% 0.2mm
21/04:55am SSW 8-12 kts 23.6°c 1007.3 hPa 98% 0.2mm
21/04:46am SSW 7-12 kts 23.6°c 1007.3 hPa 98% 0.2mm
21/04:30am SSW 6-10 kts 23.7°c 1007.4 hPa 99% 0.2mm
21/04:15am SSW 7-11 kts 24.1°c 1007.5 hPa 99% 0.2mm
21/04:00am SSW 9-13 kts 24.4°c 1007.4 hPa 96% 0.0mm
21/03:30am SW 6-7 kts 24.5°c 1007.5 hPa 94% 0.0mm
21/03:00am NE 1-4 kts 24.6°c 1007.1 hPa 91% 0.0mm
21/02:30am SE 1-4 kts 24.7°c 1007.2 hPa 92% 0.0mm
21/02:00am E 1-3 kts 24.7°c 1007.5 hPa 91% 0.0mm
21/01:30am NW 2-5 kts 24.9°c 1007.9 hPa 89% 0.0mm
21/01:00am E 5-7 kts 25.1°c 1008.6 hPa 86% 0.0mm
21/12:30am S 9-13 kts 25.5°c 1009.5 hPa 88% 0.0mm
21/12:00am SSW 9-14 kts 25.4°c 1010.2 hPa 86% 0.0mm
Time Wind Speed Temp Pressure Rel. Hum Rain
20/11:30pm SE 7-10 kts 25.3°c 1010.3 hPa 92% 0.0mm
20/11:00pm SSE 8-12 kts 25.7°c 1010.1 hPa 88% 0.0mm
20/10:30pm SE 7-10 kts 25.6°c 1009.7 hPa 88% 0.0mm
20/10:00pm SE 6-8 kts 25.4°c 1009.3 hPa 88% 0.0mm
20/09:30pm ESE 5-7 kts 25.1°c 1009.0 hPa 91% 0.0mm
20/09:00pm ESE 3-4 kts 24.3°c 1008.0 hPa 92% 0.0mm
20/08:30pm E 3-4 kts 24.7°c 1007.6 hPa 91% 0.0mm
20/08:00pm ENE 5-7 kts 25.1°c 1007.0 hPa 90% 0.0mm
20/07:30pm ENE 7-9 kts 25.2°c 1006.5 hPa 89% 0.0mm
20/07:00pm E 8-11 kts 26.0°c 1006.4 hPa 85% 0.0mm
20/06:30pm E 10-14 kts 26.9°c 1006.0 hPa 79% 0.0mm
20/06:00pm E 10-14 kts 27.7°c 1005.9 hPa 72% 0.0mm
20/05:30pm E 11-15 kts 28.0°c 1005.8 hPa 79% 0.0mm
20/05:00pm E 11-15 kts 28.1°c 1006.0 hPa 81% 0.0mm
20/04:30pm ESE 11-15 kts 28.3°c 1006.2 hPa 74% 0.0mm
20/04:00pm ESE 11-16 kts 29.2°c 1006.4 hPa 66% 0.0mm
20/03:30pm ESE 11-16 kts 28.9°c 1006.7 hPa 72% 0.0mm
20/03:00pm ESE 11-15 kts 28.7°c 1007.1 hPa 71% 0.0mm
20/02:30pm S 11-15 kts 28.6°c 1007.6 hPa 73% 0.0mm
20/02:00pm SSE 12-17 kts 29.0°c 1008.1 hPa 74% 0.0mm
20/01:30pm SE 12-16 kts 28.3°c 1008.4 hPa 77% 0.0mm
20/01:00pm SE 11-15 kts 28.4°c 1008.6 hPa 76% 0.0mm
20/12:30pm SE 12-15 kts 29.1°c 1008.9 hPa 74% 0.0mm
20/12:00pm SE 10-13 kts 28.7°c 1009.3 hPa 73% 0.0mm
20/11:30am SE 10-13 kts 28.9°c 1009.7 hPa 74% 0.0mm
20/11:00am SE 10-14 kts 28.6°c 1009.9 hPa 75% 0.0mm
20/10:30am S 7-11 kts 27.1°c 1010.0 hPa 81% 0.0mm
20/10:00am SSW 6-9 kts 28.0°c 1009.8 hPa 79% 0.0mm
20/09:30am SSE 6-13 kts 27.5°c 1009.6 hPa 77% 0.0mm
20/09:00am S 5-8 kts 26.7°c 1009.5 hPa 91% 0.0mm
20/08:30am SW 5-7 kts 24.5°c 1009.3 hPa 91% 0.0mm
20/08:00am SW 3-5 kts 22.8°c 1009.2 hPa 100% 0.0mm
20/07:30am WSW 3-4 kts 21.1°c 1009.1 hPa n/a 0.0mm
20/07:00am CALM 0-3 kts 20.0°c 1008.9 hPa n/a 0.0mm
20/06:30am CALM 0 kts 20.0°c 1008.5 hPa n/a 0.0mm
20/06:00am WSW 3-4 kts 20.9°c 1008.0 hPa n/a 0.0mm
20/05:30am WSW 4 kts 20.5°c 1008.0 hPa n/a 0.0mm
20/05:00am WSW 4-5 kts 20.7°c 1007.8 hPa n/a 0.0mm
20/04:30am WSW 3-4 kts 20.5°c 1007.5 hPa n/a 0.0mm
20/04:00am SW 2-4 kts 20.5°c 1007.6 hPa n/a 0.0mm
20/03:30am CALM 0 kts 20.5°c 1007.7 hPa n/a 0.0mm
20/03:00am SE 2-4 kts 21.5°c 1007.5 hPa n/a 0.0mm
20/02:30am CALM 0 kts 22.3°c 1007.9 hPa n/a 0.0mm
20/02:00am S 3-5 kts 21.5°c 1008.2 hPa n/a 0.0mm
20/01:30am CALM 0 kts 20.6°c 1008.0 hPa n/a 0.0mm
20/01:00am CALM 0 kts 21.1°c 1007.8 hPa 100% 0.0mm
20/12:30am N 3-5 kts 22.3°c 1007.8 hPa 90% 0.0mm
20/12:00am NNE 5-6 kts 23.3°c 1007.7 hPa 91% 0.0mm